When you browse on this site, cookies collect data to enhance your experience and personalize the content and advertising you see.
Visit our Privacy Policy to learn more. By continuing to use the site, you agree to this use of cookies and data.
  • In Deutschland
  • Länderverzeichnis
  • Für 7 Tage
  • Wassertemperatur
  • Wetterkarte
  • Widgets
  • user-avatar
    Anmelden

    Stündliche Wetter Dortmund

    Heute, 15 Oktober, Dienstag

    Zeit Temperatur Niederschläge Wind Luftdruck Luftfeuchtigkeit
    00:00 +18°C° 0 mm 2 m/S 747 mmHg 72%
    01:00 +18°C° 0 mm 2 m/S 747 mmHg 76%
    02:00 +17°C° 0 mm 2 m/S 747 mmHg 80%
    03:00 +17°C° 0 mm 2 m/S 746 mmHg 83%
    04:00 +17°C° 0 mm 2 m/S 746 mmHg 85%
    05:00 +16°C° 0 mm 2 m/S 746 mmHg 87%
    06:00 +16°C° 0 mm 2 m/S 746 mmHg 88%
    07:00 +17°C° 0 mm 2 m/S 746 mmHg 83%
    08:00 +18°C° 0 mm 2 m/S 746 mmHg 79%
    09:00 +19°C° 0 mm 2 m/S 746 mmHg 75%
    10:00 +19°C° 0.1 mm 2 m/S 746 mmHg 74%
    11:00 +21°C° 0.1 mm 1 m/S 746 mmHg 72%
    12:00 +20°C° 0 mm 2 m/S 746 mmHg 69%
    13:00 +19°C° 0.1 mm 2 m/S 746 mmHg 72%
    14:00 +18°C° 0.1 mm 2 m/S 745 mmHg 75%
    15:00 +17°C° 0.1 mm 2 m/S 745 mmHg 79%
    16:00 +17°C° 0.7 mm 2 m/S 745 mmHg 82%
    17:00 +16°C° 0.7 mm 3 m/S 746 mmHg 86%
    18:00 +14°C° 0.7 mm 3 m/S 746 mmHg 90%
    19:00 +14°C° 2.1 mm 3 m/S 746 mmHg 90%
    20:00 +14°C° 2.1 mm 3 m/S 747 mmHg 90%
    21:00 +13°C° 2.1 mm 3 m/S 747 mmHg 90%
    22:00 +13°C° 1.2 mm 3 m/S 747 mmHg 89%
    23:00 +13°C° 1.2 mm 3 m/S 748 mmHg 88%

    Morgen, 16 Oktober, Mittwoch

    Zeit Temperatur Niederschläge Wind Luftdruck Luftfeuchtigkeit
    00:00 +13°C° 1.2 mm 3 m/S 748 mmHg 88%
    01:00 +12°C° 0.5 mm 3 m/S 748 mmHg 87%
    02:00 +12°C° 0.5 mm 3 m/S 748 mmHg 86%
    03:00 +12°C° 0.5 mm 4 m/S 748 mmHg 85%
    04:00 +12°C° 0 mm 4 m/S 748 mmHg 85%
    05:00 +12°C° 0 mm 4 m/S 748 mmHg 84%
    06:00 +11°C° 0 mm 4 m/S 748 mmHg 84%
    07:00 +12°C° 0 mm 4 m/S 748 mmHg 81%
    08:00 +12°C° 0 mm 5 m/S 749 mmHg 79%
    09:00 +13°C° 0 mm 5 m/S 749 mmHg 76%
    10:00 +13°C° 0 mm 5 m/S 749 mmHg 75%
    11:00 +14°C° 0 mm 5 m/S 748 mmHg 75%
    12:00 +14°C° 0 mm 5 m/S 748 mmHg 74%
    13:00 +13°C° 0.5 mm 5 m/S 748 mmHg 78%
    14:00 +13°C° 0.5 mm 5 m/S 748 mmHg 83%
    15:00 +13°C° 0.5 mm 5 m/S 748 mmHg 87%
    16:00 +13°C° 0.2 mm 5 m/S 748 mmHg 86%
    17:00 +13°C° 0.2 mm 5 m/S 748 mmHg 86%
    18:00 +13°C° 0.2 mm 4 m/S 748 mmHg 85%
    19:00 +13°C° 0.3 mm 5 m/S 748 mmHg 86%
    20:00 +13°C° 0.3 mm 5 m/S 748 mmHg 86%
    21:00 +13°C° 0.3 mm 5 m/S 748 mmHg 86%
    22:00 +13°C° 0.6 mm 5 m/S 748 mmHg 86%
    23:00 +13°C° 0.6 mm 5 m/S 748 mmHg 87%

    übermorgen, 17 Oktober, Donnerstag

    Zeit Temperatur Niederschläge Wind Luftdruck Luftfeuchtigkeit
    00:00 +13°C° 0.6 mm 5 m/S 748 mmHg 87%
    01:00 +13°C° 0.5 mm 5 m/S 748 mmHg 87%
    02:00 +13°C° 0.5 mm 5 m/S 748 mmHg 87%
    03:00 +13°C° 0.5 mm 5 m/S 748 mmHg 86%
    04:00 +13°C° 0.2 mm 5 m/S 748 mmHg 86%
    05:00 +13°C° 0.2 mm 5 m/S 748 mmHg 86%
    06:00 +14°C° 0.2 mm 5 m/S 748 mmHg 86%
    07:00 +14°C° 0 mm 5 m/S 749 mmHg 84%
    08:00 +14°C° 0 mm 4 m/S 749 mmHg 81%
    09:00 +15°C° 0 mm 4 m/S 750 mmHg 78%
    10:00 +15°C° 0.1 mm 4 m/S 750 mmHg 78%
    11:00 +16°C° 0.1 mm 3 m/S 750 mmHg 78%
    12:00 +16°C° 0.1 mm 3 m/S 750 mmHg 77%
    13:00 +16°C° 0.1 mm 3 m/S 750 mmHg 78%
    14:00 +16°C° 0.1 mm 2 m/S 750 mmHg 79%
    15:00 +16°C° 0.1 mm 2 m/S 750 mmHg 79%
    16:00 +15°C° 0.2 mm 2 m/S 751 mmHg 81%
    17:00 +14°C° 0.2 mm 3 m/S 751 mmHg 83%
    18:00 +14°C° 0.2 mm 4 m/S 751 mmHg 85%
    19:00 +13°C° 0.1 mm 3 m/S 751 mmHg 81%
    20:00 +12°C° 0.1 mm 3 m/S 751 mmHg 78%
    21:00 +12°C° 0.1 mm 2 m/S 752 mmHg 75%
    22:00 +12°C° 0 mm 2 m/S 752 mmHg 78%
    23:00 +10°C° 0 mm 2 m/S 751 mmHg 81%

    18 Oktober, Freitag

    Zeit Temperatur Niederschläge Wind Luftdruck Luftfeuchtigkeit
    00:00 +10°C° 0 mm 2 m/S 751 mmHg 84%
    01:00 +10°C° 0 mm 2 m/S 751 mmHg 84%
    02:00 +12°C° 0 mm 2 m/S 750 mmHg 85%
    03:00 +11°C° 0 mm 3 m/S 750 mmHg 85%
    04:00 +12°C° 0.1 mm 3 m/S 750 mmHg 86%
    05:00 +12°C° 0.1 mm 4 m/S 749 mmHg 87%
    06:00 +13°C° 0.1 mm 5 m/S 749 mmHg 89%
    07:00 +13°C° 0.1 mm 5 m/S 749 mmHg 83%
    08:00 +14°C° 0.1 mm 5 m/S 749 mmHg 77%
    09:00 +14°C° 0.1 mm 5 m/S 749 mmHg 71%
    10:00 +15°C° 0 mm 6 m/S 749 mmHg 65%
    11:00 +16°C° 0 mm 6 m/S 749 mmHg 60%
    12:00 +17°C° 0 mm 6 m/S 749 mmHg 55%
    13:00 +16°C° 0.1 mm 5 m/S 749 mmHg 58%
    14:00 +16°C° 0.1 mm 5 m/S 749 mmHg 60%
    15:00 +17°C° 0.1 mm 4 m/S 749 mmHg 63%
    16:00 +15°C° 0.1 mm 4 m/S 749 mmHg 68%
    17:00 +14°C° 0.1 mm 3 m/S 749 mmHg 72%
    18:00 +12°C° 0.1 mm 3 m/S 749 mmHg 77%
    19:00 +12°C° 0 mm 3 m/S 749 mmHg 78%
    20:00 +12°C° 0 mm 3 m/S 749 mmHg 79%
    21:00 +12°C° 0 mm 3 m/S 749 mmHg 80%
    22:00 +12°C° 0 mm 3 m/S 749 mmHg 80%
    23:00 +12°C° 0 mm 3 m/S 749 mmHg 80%

    19 Oktober, Samstag

    Zeit Temperatur Niederschläge Wind Luftdruck Luftfeuchtigkeit
    00:00 +12°C° 0 mm 3 m/S 748 mmHg 79%
    01:00 +12°C° 0 mm 3 m/S 748 mmHg 79%
    02:00 +12°C° 0 mm 3 m/S 747 mmHg 79%
    03:00 +12°C° 0 mm 4 m/S 747 mmHg 79%
    04:00 +12°C° 0.1 mm 4 m/S 747 mmHg 80%
    05:00 +12°C° 0.1 mm 3 m/S 747 mmHg 81%
    06:00 +11°C° 0.1 mm 3 m/S 746 mmHg 82%
    07:00 +12°C° 0.1 mm 3 m/S 746 mmHg 81%
    08:00 +12°C° 0.1 mm 4 m/S 746 mmHg 80%
    09:00 +13°C° 0.1 mm 4 m/S 746 mmHg 79%
    10:00 +13°C° 0.1 mm 5 m/S 746 mmHg 76%
    11:00 +14°C° 0.1 mm 5 m/S 745 mmHg 74%
    12:00 +15°C° 0.1 mm 5 m/S 745 mmHg 71%
    13:00 +15°C° 0.2 mm 5 m/S 745 mmHg 72%
    14:00 +14°C° 0.2 mm 5 m/S 744 mmHg 72%
    15:00 +14°C° 0.2 mm 4 m/S 744 mmHg 73%
    16:00 +14°C° 0.7 mm 4 m/S 744 mmHg 77%
    17:00 +13°C° 0.7 mm 4 m/S 744 mmHg 80%
    18:00 +12°C° 0.7 mm 4 m/S 745 mmHg 83%
    19:00 +12°C° 0.2 mm 4 m/S 745 mmHg 83%
    20:00 +12°C° 0.2 mm 4 m/S 745 mmHg 84%
    21:00 +11°C° 0.2 mm 4 m/S 746 mmHg 85%
    22:00 +11°C° 0 mm 4 m/S 746 mmHg 85%
    23:00 +10°C° 0 mm 4 m/S 746 mmHg 85%

    20 Oktober, Sonntag

    Zeit Temperatur Niederschläge Wind Luftdruck Luftfeuchtigkeit
    00:00 +10°C° 0 mm 3 m/S 746 mmHg 85%
    01:00 +10°C° 0 mm 3 m/S 747 mmHg 85%
    02:00 +10°C° 0 mm 3 m/S 747 mmHg 86%
    03:00 +8°C° 0 mm 4 m/S 747 mmHg 86%
    04:00 +8°C° 0 mm 4 m/S 747 mmHg 86%
    05:00 +8°C° 0 mm 4 m/S 748 mmHg 87%
    06:00 +8°C° 0 mm 4 m/S 748 mmHg 87%
    07:00 +10°C° 0 mm 4 m/S 749 mmHg 82%
    08:00 +10°C° 0 mm 5 m/S 749 mmHg 78%
    09:00 +12°C° 0 mm 5 m/S 749 mmHg 74%
    10:00 +13°C° 0 mm 5 m/S 749 mmHg 69%
    11:00 +13°C° 0 mm 5 m/S 750 mmHg 64%
    12:00 +14°C° 0 mm 5 m/S 750 mmHg 58%
    13:00 +14°C° 0 mm 4 m/S 750 mmHg 60%
    14:00 +14°C° 0 mm 4 m/S 750 mmHg 61%
    15:00 +13°C° 0 mm 3 m/S 750 mmHg 62%
    16:00 +12°C° 0 mm 3 m/S 750 mmHg 66%
    17:00 +11°C° 0 mm 3 m/S 751 mmHg 71%
    18:00 +10°C° 0 mm 3 m/S 751 mmHg 75%
    19:00 +9°C° 0 mm 2 m/S 751 mmHg 77%
    20:00 +9°C° 0 mm 2 m/S 752 mmHg 79%
    21:00 +9°C° 0 mm 2 m/S 752 mmHg 81%
    22:00 +9°C° 0 mm 2 m/S 752 mmHg 82%
    23:00 +9°C° 0 mm 2 m/S 752 mmHg 83%
    Mehr zeigen